Regional Weather Roundup
Issued by NWS

Home | Current Version | Previous Version | Graphics & Text | Print | Product List | Glossary On
Versions: 1 2 3 4 5 6 7 8 9 10 11 12 13 14 15 16 17 18 19 20 21 22 23 24 25 26 27 28 29 30 31 32 33 34 35 36 37 38 39 40 41 42 43 44 45 46 47 48 49 50
000
ASUS43 KFSD 031702
RWRSD

WEATHER ROUNDUP FOR SOUTH DAKOTA
NATIONAL WEATHER SERVICE SIOUX FALLS SD
1200 PM CDT SUN MAY 03 2015

NOTE: "FAIR" INDICATES FEW OR NO CLOUDS BELOW 12,000 FEET WITH NO
SIGNIFICANT WEATHER AND/OR OBSTRUCTIONS TO VISIBILITY.


SDZ001>005-009-010-012>017-031800-
NORTHWEST AND NORTH CENTRAL SOUTH DAKOTA

CITY           SKY/WX    TMP DP  RH WIND       PRES   REMARKS
BUFFALO          N/A     56  34  43 NE10      29.98R
FAITH            N/A     64  32  30 N18       29.96R
MOBRIDGE       PTSUNNY   63  35  35 N18       29.93R
$$

SDZ012>016-024>037-041>051-057-063-072>074-031800-
SOUTHWEST AND SOUTH CENTRAL SOUTH DAKOTA

CITY           SKY/WX    TMP DP  RH WIND       PRES   REMARKS
RAPID CTY ARPT SUNNY     64  36  35 N20       30.00R
PIERRE         MOSUNNY   72  38  29 NE25G35   29.88R
CUSTER         SUNNY     56  33  42 NE15      30.03R
ELLSWORTH AFB  SUNNY     62  38  40 N14G20    30.00R
PHILIP         MOSUNNY   69  37  30 NE21G32   29.94R
PINE RIDGE     MOSUNNY   64  36  35 NE17G35   29.96R
WINNER         FAIR      70  36  28 NE30G40   29.86R
$$

SDZ004>011-016>023-039-040-031800-
NORTHEAST SOUTH DAKOTA

CITY           SKY/WX    TMP DP  RH WIND       PRES   REMARKS
ABERDEEN       MOSUNNY   66  36  32 N26G33    29.90R
WATERTOWN      SUNNY     70  40  33 N31G39    29.85R
BROOKINGS      PTSUNNY   73  55  53 NE16G25   29.80R
SISSETON         N/A     71  38  29 NE28G35   29.85R
$$

SDZ017-020-022-023-036>040-048>070-031800-
SOUTHEAST SOUTH DAKOTA

CITY           SKY/WX    TMP DP  RH WIND       PRES   REMARKS
SIOUX FALLS    PTSUNNY   77  55  46 VRB5      29.77R
HURON          SUNNY     72  40  31 N26G40    29.85R
MITCHELL       SUNNY     77  56  48 NE18G26   29.80R
YANKTON        MOSUNNY   75  55  50 CALM      29.74R
$$

ABBREVIATIONS USED IN REMARKS
   TC - TEMPERATURE IN CELSIUS
  WCI - WIND CHILL INDEX
   HX - HEAT INDEX
  VSB - VISIBILITY



USA.gov is the U.S. government's official web portal to all federal, state and local government web resources and services.